EW2980 Weather Reports


Display with metric or nautical units.
time (UTC)temp
F
wind
direction
speed
MPH
gust
MPH
rain 1hr
in
rain 24hr
in
rain mn
in
humidity
%
barometer
mb
20260507151516 65 309 4.0 7.0 0.00 0.00 0.00 67 1013.0
20260507150012 65 311 1.0 4.0 0.00 0.00 0.00 67 1012.9
20260507144507 65 5 1.0 3.0 0.00 0.00 0.00 67 1012.9
20260507143004 65 9 0.0 3.0 0.00 0.00 0.00 64 1012.8
20260507141502 63 15 1.0 3.0 0.00 0.00 0.00 55 1012.7
20260507140122 61 193 0.0 2.0 0.00 0.00 0.00 53 1012.7
20260507134558 59 193 0.0 1.0 0.00 0.00 0.00 53 1012.6
20260507133056 58 193 0.0 1.0 0.00 0.00 0.00 57 1012.3
20260507131602 60 193 0.0 1.0 0.00 0.00 0.00 57 1012.2
20260507130052 61 193 0.0 2.0 0.00 0.00 0.00 54 1012.2
20260507124602 61 193 1.0 3.0 0.00 0.00 0.00 56 1012.0
20260507123054 61 193 0.0 0.0 0.00 0.00 0.00 56 1012.0
20260507121547 61 193 0.0 0.0 0.00 0.00 0.00 57 1012.0
20260507120045 61 193 1.0 2.0 0.00 0.00 0.00 57 1012.1
20260507114545 61 193 0.0 2.0 0.00 0.00 0.00 58 1011.9
20260507113042 61 193 2.0 4.0 0.00 0.00 0.00 57 1011.9
20260507111543 61 16 0.0 0.0 0.00 0.00 0.00 61 1011.4
20260507110037 62 16 0.0 0.0 0.00 0.00 0.00 60 1011.3
20260507104539 61 16 0.0 0.0 0.00 0.00 0.00 62 1011.4
20260507103036 61 16 0.0 0.0 0.00 0.00 0.00 63 1011.5
20260507101543 62 16 0.0 2.0 0.00 0.00 0.00 61 1011.4
20260507100036 62 16 1.0 3.0 0.00 0.00 0.00 61 1011.4
20260507094533 62 16 0.0 1.0 0.00 0.00 0.00 61 1011.3
20260507093037 61 16 0.0 0.0 0.00 0.00 0.00 64 1011.3
20260507091529 62 16 0.0 1.0 0.00 0.00 0.00 65 1011.4
20260507090031 62 16 0.0 1.0 0.00 0.00 0.00 63 1011.3
20260507084525 63 16 0.0 1.0 0.00 0.00 0.00 62 1011.6
20260507083035 63 16 0.0 0.0 0.00 0.00 0.00 62 1011.6
20260507081527 62 16 0.0 0.0 0.00 0.00 0.00 63 1011.8
20260507080020 62 16 0.0 1.0 0.00 0.00 0.00 63 1012.1
20260507074526 62 16 0.0 2.0 0.00 0.00 0.00 65 1012.1
20260507073015 63 16 0.0 0.0 0.00 0.00 0.00 65 1012.2
20260507071512 64 16 0.0 0.0 0.00 0.00 0.00 63 1012.4
20260507070013 64 16 0.0 0.0 0.00 0.00 0.00 63 1012.6
20260507064511 63 16 0.0 0.0 0.00 0.00 0.00 65 1012.7
20260507063009 63 16 0.0 0.0 0.00 0.00 0.00 67 1012.9
20260507061509 63 16 0.0 0.0 0.00 0.00 0.00 68 1013.0
20260507060009 63 16 0.0 0.0 0.00 0.00 0.00 67 1013.1
20260507054510 63 16 0.0 2.0 0.00 0.00 0.00 68 1013.1
20260507053008 64 16 0.0 0.0 0.00 0.00 0.00 68 1013.3
20260507051508 65 16 0.0 0.0 0.00 0.00 0.00 68 1013.5
20260507050010 65 16 0.0 0.0 0.00 0.00 0.00 68 1013.5
20260507044507 65 16 0.0 1.0 0.00 0.00 0.00 68 1013.4
20260507043007 65 16 0.0 1.0 0.00 0.00 0.00 68 1013.3
20260507041505 65 16 0.0 2.0 0.00 0.00 0.00 68 1013.3
20260507040005 66 16 0.0 2.0 0.00 0.00 0.00 68 1013.2
20260507034504 66 16 0.0 3.0 0.00 0.00 0.00 68 1013.2
20260507033004 66 332 1.0 4.0 0.00 0.00 0.00 68 1013.2
20260507031503 66 330 1.0 4.0 0.00 0.00 0.00 68 1013.1
20260507030003 67 15 0.0 3.0 0.00 0.00 0.00 68 1013.0
20260507024502 67 348 0.0 4.0 0.00 0.00 0.00 68 1012.7
20260507023001 67 346 1.0 3.0 0.00 0.00 0.00 68 1012.6
20260507021500 68 321 1.0 5.0 0.00 0.00 0.00 68 1012.7
20260507020104 68 360 2.0 5.0 0.00 0.00 0.00 67 1012.7
20260507014609 69 321 3.0 8.0 0.00 0.00 0.00 67 1012.5
20260507013058 70 324 3.0 9.0 0.00 0.00 0.00 66 1012.5
20260507011604 71 316 4.0 10.0 0.00 0.00 0.00 65 1012.3
20260507010058 71 22 5.0 10.0 0.00 0.00 0.00 63 1012.3
20260507004557 72 301 4.0 9.0 0.00 0.00 0.00 65 1012.2
20260507003055 72 355 4.0 9.0 0.00 0.00 0.00 64 1012.2
20260507001614 72 13 2.0 6.0 0.00 0.00 0.00 66 1012.1
20260507000059 0 0.0 0.0 0.00 0.00 0.00 1012.1
20260506234549 0 0.0 0.0 0.00 0.00 0.00 1012.0
20260506233044 0 0.0 0.0 0.00 0.00 0.00 1012.0
20260506231540 0 0.0 0.0 0.00 0.00 0.00 1012.0
20260506230042 0 0.0 0.0 0.00 0.00 0.00 1012.0
20260506224538 0 0.0 0.0 0.00 0.00 0.00 1012.0
20260506223025 76 360 5.0 12.0 0.00 0.00 0.00 57 1012.1